VLG2BZ LEBB-GCXO

Flight info

Callsign VLG2BZ
Flight time N/A
Altitude 35000
Route AMTOS L14 ADINO DCT ELVAR DCT BAROK UN873 SAMAR
Aircraft A320/M-SDE3FGHIRWY/LB1

Departure

Time 2026-05-05 12:40
Airport Bilbao Airport (LEBB)

Arrival

Time N/A
Airport Tenerife Norte-Ciudad de La Laguna Airport (GCXO)
Time Latitude Longitude Altitude Speed Heading
2026-05-05 12:10 43.30407 -2.90576 124 ft 0 kts 26°
2026-05-05 12:23 43.30407 -2.90577 127 ft 0 kts 26°
2026-05-05 12:23 43.30407 -2.90576 127 ft 0 kts 26°
2026-05-05 12:24 43.30407 -2.90577 127 ft 0 kts 26°
2026-05-05 12:31 43.30392 -2.90587 122 ft 3 kts 31°
2026-05-05 12:31 43.30370 -2.90608 123 ft 4 kts 44°
2026-05-05 12:31 43.30354 -2.90636 123 ft 4 kts 79°
2026-05-05 12:32 43.30355 -2.90657 123 ft 1 kts 117°
2026-05-05 12:32 43.30357 -2.90661 124 ft 2 kts 117°
2026-05-05 12:36 43.30356 -2.90660 124 ft 0 kts 117°
2026-05-05 12:36 43.30352 -2.90649 123 ft 3 kts 117°
2026-05-05 12:36 43.30332 -2.90608 123 ft 7 kts 134°
2026-05-05 12:37 43.30282 -2.90560 124 ft 11 kts 147°
2026-05-05 12:37 43.30204 -2.90539 124 ft 14 kts 206°
2026-05-05 12:37 43.30110 -2.90548 125 ft 16 kts 128°
2026-05-05 12:37 43.30054 -2.90401 124 ft 19 kts 117°
2026-05-05 12:38 43.29989 -2.90223 124 ft 22 kts 116°
2026-05-05 12:38 43.29914 -2.90018 125 ft 26 kts 116°
2026-05-05 12:38 43.29838 -2.89812 126 ft 23 kts 116°
2026-05-05 12:38 43.29765 -2.89609 126 ft 24 kts 116°
2026-05-05 12:39 43.29686 -2.89492 126 ft 10 kts 189°
2026-05-05 12:39 43.29647 -2.89572 124 ft 11 kts 248°
2026-05-05 12:39 43.29609 -2.89675 124 ft 10 kts 256°
2026-05-05 12:39 43.29636 -2.89770 124 ft 14 kts 296°
2026-05-05 12:40 43.29766 -2.90122 123 ft 81 kts 297°
2026-05-05 12:40 43.30134 -2.91118 128 ft 148 kts 297°
2026-05-05 12:40 43.30643 -2.92470 688 ft 162 kts 298°
2026-05-05 12:40 43.31184 -2.93864 1565 ft 168 kts 297°
2026-05-05 12:41 43.31734 -2.95251 2424 ft 166 kts 297°
2026-05-05 12:41 43.32284 -2.96649 3026 ft 167 kts 302°
2026-05-05 12:41 43.33052 -2.97835 3649 ft 165 kts 311°
2026-05-05 12:41 43.33877 -2.98958 4277 ft 164 kts 314°
2026-05-05 12:42 43.34696 -3.00030 4807 ft 167 kts 314°
2026-05-05 12:42 43.35553 -3.01150 5301 ft 173 kts 315°
2026-05-05 12:42 43.36432 -3.02306 5797 ft 177 kts 314°
2026-05-05 12:42 43.37379 -3.03425 6295 ft 184 kts 330°
2026-05-05 12:43 43.38660 -3.03710 6779 ft 198 kts
2026-05-05 12:43 43.39901 -3.02795 7263 ft 213 kts 44°
2026-05-05 12:43 43.40581 -3.00962 7746 ft 223 kts 80°
2026-05-05 12:43 43.40411 -2.98854 8243 ft 226 kts 115°
2026-05-05 12:44 43.39660 -2.96955 8741 ft 228 kts 124°
2026-05-05 12:44 43.38770 -2.95085 9062 ft 241 kts 126°
2026-05-05 12:44 43.37779 -2.93108 9309 ft 262 kts 128°
2026-05-05 12:44 43.36388 -2.91398 9593 ft 279 kts 155°
2026-05-05 12:45 43.34490 -2.90765 10010 ft 286 kts 185°
2026-05-05 12:45 43.32505 -2.91370 10250 ft 303 kts 202°
2026-05-05 12:45 43.30493 -2.92538 10401 ft 324 kts 211°
2026-05-05 12:45 43.28597 -2.94287 10839 ft 332 kts 219°
2026-05-05 12:46 43.26722 -2.96183 11484 ft 336 kts 218°
2026-05-05 12:46 43.24812 -2.98065 12126 ft 340 kts 217°
2026-05-05 12:46 43.22872 -2.99949 12765 ft 343 kts 217°
2026-05-05 12:46 43.20913 -3.01840 13406 ft 346 kts 217°
2026-05-05 12:47 43.18937 -3.03748 14047 ft 349 kts 217°
2026-05-05 12:47 43.16944 -3.05678 14613 ft 352 kts 217°
2026-05-05 12:47 43.14933 -3.07629 15124 ft 356 kts 217°
2026-05-05 12:47 43.12935 -3.09569 15677 ft 359 kts 217°
2026-05-05 12:48 43.10892 -3.11553 16228 ft 361 kts 217°
2026-05-05 12:48 43.08835 -3.13549 16796 ft 363 kts 217°
2026-05-05 12:48 43.06744 -3.15579 17356 ft 366 kts 217°
2026-05-05 12:48 43.04690 -3.17573 17911 ft 368 kts 217°
2026-05-05 12:49 43.02590 -3.19606 18440 ft 371 kts 217°
2026-05-05 12:49 43.00482 -3.21643 18931 ft 373 kts 217°
2026-05-05 12:49 42.98349 -3.23685 19422 ft 376 kts 217°
2026-05-05 12:49 42.96183 -3.25708 19901 ft 379 kts 216°
2026-05-05 12:50 42.93990 -3.27728 20392 ft 382 kts 216°
2026-05-05 12:50 42.91780 -3.29757 20879 ft 384 kts 216°
2026-05-05 12:50 42.89556 -3.31800 21353 ft 386 kts 216°
2026-05-05 12:50 42.87324 -3.33860 21805 ft 389 kts 216°
2026-05-05 12:51 42.85078 -3.35937 22230 ft 391 kts 216°
2026-05-05 12:51 42.82821 -3.38029 22669 ft 394 kts 216°
2026-05-05 12:51 42.80551 -3.40132 23096 ft 396 kts 216°
2026-05-05 12:51 42.78266 -3.42245 23542 ft 398 kts 216°
2026-05-05 12:52 42.75966 -3.44367 23883 ft 401 kts 216°
2026-05-05 12:52 42.73645 -3.46502 24209 ft 404 kts 216°
2026-05-05 12:52 42.71311 -3.48649 24559 ft 406 kts 216°
2026-05-05 12:52 42.68973 -3.50803 24913 ft 408 kts 216°
2026-05-05 12:53 42.66619 -3.52969 25272 ft 409 kts 216°
2026-05-05 12:53 42.64257 -3.55143 25615 ft 411 kts 216°
2026-05-05 12:53 42.61885 -3.57328 25958 ft 413 kts 216°
2026-05-05 12:53 42.59501 -3.59519 26299 ft 415 kts 216°
2026-05-05 12:54 42.54693 -3.63910 26971 ft 418 kts 216°
2026-05-05 12:54 42.52276 -3.66114 27354 ft 419 kts 216°
2026-05-05 12:54 42.49851 -3.68324 27707 ft 421 kts 216°
2026-05-05 12:55 42.47414 -3.70541 28058 ft 423 kts 216°
2026-05-05 12:55 42.44966 -3.72768 28400 ft 425 kts 217°
2026-05-05 12:55 42.42510 -3.75007 28746 ft 426 kts 217°
2026-05-05 12:55 42.40056 -3.77245 29228 ft 425 kts 217°
2026-05-05 12:56 42.37617 -3.79470 29720 ft 423 kts 217°
2026-05-05 12:56 42.35180 -3.81689 30186 ft 422 kts 217°
2026-05-05 12:56 42.32743 -3.83900 30514 ft 422 kts 217°
2026-05-05 12:56 42.30299 -3.86110 30840 ft 423 kts 217°
2026-05-05 12:57 42.27853 -3.88321 31206 ft 423 kts 217°
2026-05-05 12:57 42.25409 -3.90527 31576 ft 422 kts 217°
2026-05-05 12:57 42.22967 -3.92729 31967 ft 422 kts 217°
2026-05-05 12:57 42.20528 -3.94928 32331 ft 421 kts 217°
2026-05-05 12:58 42.18091 -3.97123 32710 ft 421 kts 217°
2026-05-05 12:58 42.15692 -3.99285 33073 ft 420 kts 217°
2026-05-05 12:58 42.13263 -4.01475 33463 ft 420 kts 217°
2026-05-05 12:58 42.10851 -4.03649 33856 ft 418 kts 218°
2026-05-05 12:59 42.08439 -4.05821 34221 ft 417 kts 218°
2026-05-05 12:59 42.06028 -4.07991 34514 ft 417 kts 218°
2026-05-05 12:59 42.03617 -4.10160 34777 ft 417 kts 219°
2026-05-05 13:00 41.99168 -4.15130 35015 ft 419 kts 224°
2026-05-05 13:00 41.96957 -4.17731 35021 ft 425 kts 224°
2026-05-05 13:01 41.87961 -4.28249 35020 ft 429 kts 224°
2026-05-05 13:01 41.83460 -4.33495 35019 ft 428 kts 224°
2026-05-05 13:02 41.78967 -4.38731 35020 ft 428 kts 224°
2026-05-05 13:02 41.74467 -4.43970 35022 ft 429 kts 224°
2026-05-05 13:03 41.69962 -4.49201 35024 ft 429 kts 224°
2026-05-05 13:03 41.65454 -4.54416 35014 ft 428 kts 224°
2026-05-05 13:04 41.61711 -4.58735 35013 ft 428 kts 224°
2026-05-05 13:04 41.57199 -4.63928 35008 ft 428 kts 224°
2026-05-05 13:05 41.52688 -4.69130 35019 ft 429 kts 225°
2026-05-05 13:05 41.47442 -4.75171 35012 ft 429 kts 224°
2026-05-05 13:06 41.43649 -4.79513 35003 ft 429 kts 225°
2026-05-05 13:06 41.39129 -4.84677 35009 ft 428 kts 225°
2026-05-05 13:07 41.34611 -4.89841 35008 ft 428 kts 225°
2026-05-05 13:07 41.30095 -4.94996 35010 ft 428 kts 224°
2026-05-05 13:08 41.25605 -5.00113 34988 ft 428 kts 225°
2026-05-05 13:08 41.21076 -5.05261 34979 ft 428 kts 225°
2026-05-05 13:09 41.16548 -5.10387 34996 ft 428 kts 225°
2026-05-05 13:09 41.12012 -5.15510 35015 ft 428 kts 225°
2026-05-05 13:10 41.07479 -5.20629 35024 ft 428 kts 225°
2026-05-05 13:10 41.02946 -5.25742 35037 ft 428 kts 225°
2026-05-05 13:11 40.98411 -5.30846 35041 ft 427 kts 225°
2026-05-05 13:11 40.93879 -5.35932 35047 ft 427 kts 225°
2026-05-05 13:12 40.89352 -5.41003 35051 ft 427 kts 225°
2026-05-05 13:12 40.84818 -5.46076 35054 ft 427 kts 225°
2026-05-05 13:13 40.80277 -5.51136 35049 ft 427 kts 225°
2026-05-05 13:13 40.75767 -5.56153 35001 ft 426 kts 226°
2026-05-05 13:14 40.71246 -5.61186 35019 ft 425 kts 226°
2026-05-05 13:14 40.66737 -5.66200 35025 ft 424 kts 226°
2026-05-05 13:15 40.62232 -5.71198 35013 ft 423 kts 226°
2026-05-05 13:15 40.57731 -5.76173 35016 ft 423 kts 226°
2026-05-05 13:16 40.53222 -5.81142 35019 ft 423 kts 226°
2026-05-05 13:16 40.48719 -5.86118 35022 ft 423 kts 226°
2026-05-05 13:17 40.44215 -5.91090 35024 ft 423 kts 226°
2026-05-05 13:17 40.39706 -5.96049 35023 ft 423 kts 226°
2026-05-05 13:18 40.35194 -6.00996 35019 ft 423 kts 226°
2026-05-05 13:18 40.30680 -6.05935 34999 ft 422 kts 227°
2026-05-05 13:19 40.25633 -6.09982 35002 ft 441 kts 206°
2026-05-05 13:19 40.19788 -6.12439 35009 ft 441 kts 205°
2026-05-05 13:20 40.13918 -6.14800 35013 ft 442 kts 205°
2026-05-05 13:20 40.08050 -6.17161 34974 ft 441 kts 206°
2026-05-05 13:21 40.02199 -6.19542 35024 ft 439 kts 206°
2026-05-05 13:21 39.96380 -6.21913 35032 ft 438 kts 206°
2026-05-05 13:22 39.90607 -6.24255 35038 ft 437 kts 206°
2026-05-05 13:22 39.84802 -6.26603 35021 ft 436 kts 206°
2026-05-05 13:23 39.79013 -6.28945 35034 ft 435 kts 206°
2026-05-05 13:23 39.73240 -6.31281 35036 ft 435 kts 206°
2026-05-05 13:24 39.67466 -6.33620 35040 ft 434 kts 206°
2026-05-05 13:24 39.61698 -6.35946 35009 ft 433 kts 205°
2026-05-05 13:25 39.56942 -6.37847 35037 ft 432 kts 205°